Overview Statistics Trail Chart Weather Telemetry Raw packets
 

This is the latest recevied weather packets stored in our database for station/object HB9GPU-10. If no packets are shown the sender has not sent any weather packets the latest 10 day(s).

<< 9 10 11 12 13 14 15 >>
Time Temp. Humidity Pressure Rain* Wind** Luminosity Snow
1788424436 22.78° C 37% 1027.8 hPa - - - -
1788423536 22.78° C 36% 1028.1 hPa - - - -
1788422636 22.22° C 37% 1028.1 hPa - - - -
1788421751 22.78° C 37% 1028.3 hPa - - - -
1788420835 22.78° C 36% 1028.4 hPa - - - -
1788419935 21.11° C 38% 1028.7 hPa - - - -
1788419035 21.67° C 38% 1028.8 hPa - - - -
1788418159 23.33° C 36% 1028.6 hPa - - - -
1788417235 22.22° C 37% 1028.6 hPa - - - -
1788416335 22.78° C 36% 1028.5 hPa - - - -
1788415435 21.67° C 38% 1028.4 hPa - - - -
1788414558 22.78° C 36% 1028.2 hPa - - - -
1788413634 22.78° C 36% 1028.3 hPa - - - -
1788412734 22.78° C 35% 1028.1 hPa - - - -
1788411834 22.78° C 35% 1027.9 hPa - - - -
1788410934 22.78° C 36% 1027.9 hPa - - - -
1788410033 22.78° C 35% 1027.7 hPa - - - -
1788409133 22.78° C 36% 1027.7 hPa - - - -
1788408233 23.33° C 35% 1027.6 hPa - - - -
1788407333 22.78° C 35% 1027.7 hPa - - - -
1788406433 23.33° C 35% 1027.7 hPa - - - -
1788405532 22.78° C 36% 1027.7 hPa - - - -
1788404632 23.33° C 35% 1027.6 hPa - - - -
1788403732 23.33° C 34% 1027.6 hPa - - - -
1788402832 23.33° C 35% 1027.7 hPa - - - -

* Rain since midnight (hover to see other rain measurements)
** Current wind speed in m/s (hover to see current wind gust speed)